* Astronomy

Members Login
Username 
 
Password 
    Remember Me  
Post Info TOPIC: Chang Zheng-3A rocket body re-entry


L

Posts: 131433
Date:
RE: Chang Zheng-3A rocket body re-entry
Permalink  
 


Update:
The Chang Zheng-3A rocket body re-entered the Earths atmosphere on the 3rd March, 2012 @ 05:08 GMT  ± 2 minutes.

Inclination: 54.3°
Revolution Number:  551
Predicted Location:  46.8°S, 216.2°E



__________________


L

Posts: 131433
Date:
Permalink  
 

Update:
The Chang Zheng-3A rocket body is predicted to re-enter the Earths atmosphere on the 3rd March, 2012 @ 15:07 GMT  ± 48 hours.

CZ-3A RB
1 37764U 11038B   12061.95587963 +.99999999 -11954-4 +69804-2 0 01473
2 37764 054.4261 148.6443 1691203 216.2701 119.8243 12.57213843005337

Period:       122.01 minutes
Inclination: 54.43°
Apogee:     3449 km
Perigee:     92 km 
Revolution Number:  556
Predicted Location:  20.4°S, 311°E



__________________


L

Posts: 131433
Date:
Permalink  
 

A Chang Zheng-3A rocket body that was launched on the 26th July, 2011, from the Xichang Satellite Launch Centre, for the Beidou-2 M2 satellite mission is predicted to re-enter the Earths atmosphere on the 3rd March, 2012 @ 15:07 GMT  ± 48 hours.

CZ-3A RB
1 37764U 11038B   12061.38294616  .90839542 -79313-5  22011-2 0  1459
2 37764 054.4053 150.1595 2297528 214.5209 189.4698 11.28299422  5273

Period:       550.8 minutes
Inclination: 54.68°
Apogee:     31671 km
Perigee:     89 km 
Revolution Number:  556
Predicted Location:  20.4°S, 311°E



__________________
Page 1 of 1  sorted by
 
Quick Reply

Please log in to post quick replies.



Create your own FREE Forum
Report Abuse
Powered by ActiveBoard